Regional Weather Roundup
Issued by NWS Newport/Morehead, NC

Current Version | Previous Version | Graphics & Text | Print | Product List | Glossary Off
Versions: 1 2 3 4 5 6 7 8 9 10 11 12 13 14 15 16 17 18 19 20 21 22 23 24 25 26 27 28 29 30 31 32 33 34 35 36 37 38 39 40 41 42 43 44 45 46 47 48 49 50

000
ASUS42 KMHX 200410
RWRMHX
WEATHER ROUNDUP FOR EASTERN NORTH CAROLINA
NATIONAL WEATHER SERVICE NEWPORT/MOREHEAD CITY NC
1200 AM EDT SUN APR 20 2014

NOTE: "FAIR" INDICATES FEW OR NO CLOUDS BELOW 12,000 FEET
WITH NO SIGNIFICANT WEATHER AND/OR OBSTRUCTIONS TO VISIBILITY

NCZ015>017-031-032-045>047-102-103-200500-
NORTH COAST

CITY           SKY/WX    TMP DP  RH WIND       PRES   REMARKS
EDENTON        DRIZZLE   49  42  75 NE7       30.20F
ELIZABETH CITY CLOUDY    51  43  74 N12       30.21F
KITTY HAWK     DRIZZLE   50  48  94 N13       30.16F
MANTEO         DRIZZLE   50  49  94 NE14      30.17S

$$

NCZ045>047-081-094-103-104-200500-
CENTRAL COAST

CITY           SKY/WX    TMP DP  RH WIND       PRES   REMARKS
FRISCO         LGT RAIN  53  53 100 NE13G25   30.11F
SWANQUARTER      N/A     52 N/A N/A NE14      30.12S

$$

NCZ095-097-098-100-101-200500-
SOUTHERN COAST

CITY           SKY/WX    TMP DP  RH WIND       PRES   REMARKS
BEAUFORT       CLOUDY    54  52  93 N23G32    30.08F
CEDAR ISLAND     N/A     55 N/A N/A N24G32    30.15F
JACKSONVILLE   LGT RAIN  50  50 100 N17G25    30.09F
NEWPORT          N/A     52  52 100 N13G18      N/A
PINEY ISLAND   LGT RAIN  55  53  93 N23G30    30.11F
WILMINGTON     CLOUDY    52  49  89 NE16      30.08R


$$

NCZ011>013-027>030-043-044-078>080-089-090>093-098-200500-
COASTAL PLAIN

CITY           SKY/WX    TMP DP  RH WIND       PRES   REMARKS
AHOSKIE        CLOUDY    51  40  66 N7        30.22F
CLINTON        CLOUDY    51  44  75 NE14G23   30.14F
ELIZABETHTOWN  CLOUDY    49  48  98 NE3       30.13R
GOLDSBORO      LGT RAIN  49  47  92 NE8       30.15F
GREENVILLE     DRIZZLE   46  45  93 NE8       30.20F
HAVELOCK       CLOUDY    52  49  89 NE20      30.12F
KENANSVILLE    DRIZZLE   50  44  79 NE13G20   30.15F
KINSTON        LGT RAIN  49  46  88 N14G20    30.17F
NEW BERN       LGT RAIN  51  48  89 N10       30.15F
RICHLANDS      CLOUDY    48  48 100 N16       30.12F
ROANOKE RAPIDS NOT AVBL
ROCKY MOUNT    LGT RAIN  51  43  74 NE9       30.21F
WASHINGTON     CLOUDY    47  43  86 N10       30.19F
WHITEVILLE     DRIZZLE   50  48  92 NE8G17    30.10R

$$

AMZ130-135-150-152-154-156-158-170-250-252-270-ANZ085-086-088-633-658-670-200500-
MARINE OBSERVATIONS

STATION/POSITION TIME  TEMP    WIND        PRES    WAVE   SWELL
                       AIR SEA DIR/SP/G            HT/PER HT/PER
                 (UTC) (F)     (DEG/KT/KT) (MB)    (FT/S) (FT/S)
CHESAPEAKE LIGHT 0300   47      40/ 15/ 16 1024.5
BUOY 44014       0400   52 49   20/ 16/ 19 1021.1    7/ 7   3/ 9
DUCK             0400   50 49   10/ 14/ 17 1021.2
2E DUCK          0400      47                N/A     6/ 8   2/11
OREGON INLET     0400   50 51  360/ 11/ 18 1021.0
BUOY 44095       0400      48                N/A     8/ 8   2/11
HATTERAS CG      0400   55 56   10/ 16/ 23 1019.5
DIAMOND BUOY     NOT AVBL
CAPE LOOKOUT     0300   54      10/ 21/ 28 1018.6
BEAUFORT LAB     0400   54 57   20/ 16/ 24 1018.3
30 SE NEW RIVER  0400   58 65   30/ 29/ 35 1016.3   10/ 6   3/11
5 SE WRIGHTSVILL 0300   56 59   20/ 27/ 33 1016.2
FRYING PAN BUOY  0400   62 68   50/ 27/ 35 1014.7   10/ 7   2/11
BUOY 41001       NOT AVBL
BUOY 41002       NOT AVBL
BUOY 41004       NOT AVBL

$$



USA.gov is the U.S. government's official web portal to all federal, state and local government web resources and services.